Flag for Chad Weather past 2 weeks in Ndjamena, Chad

Now
79 °F

Clear.


Feels Like: 82 °F
Forecast: 77 / 93 °F
Wind: 7 mph from Southwest

Location: Ndjamena

Current Time: Sep 24, 2014 at 1:28:06 AM

Latest Report: Sep 24, 2014 at 12:00 AM


Visibility: 10 mi

Pressure: 29.83 "Hg

Humidity: 79%

Dew point: 72 °F

Location of NdjamenaLocation

Historic Weather in Ndjamena — Graph

°F

Ndjamena temperature yesterday

Maximum temperature yesterday: 97 °F (at 2:00 PM)
Minimum temperature yesterday: 75 °F (at 2:00 AM)
Average temperature yesterday: 84 °F

Past Weeks' High & Low Weather Summary

 TemperatureHumidityPressure
High99 °F (Sep 18, 4:00 PM)94% (Sep 9, 12:00 AM)29.95 "Hg (Sep 9, 12:00 AM)
Low72 °F (Sep 10, 4:00 AM)34% (Sep 23, 4:00 PM)29.71 "Hg (Sep 11, 5:00 PM)
Average82 °F71%29.86 "Hg
* Reported Midnight between Sep 8 and Sep 9 — Midnight between Sep 23 and Sep 24, Ndjamena, Weather by CustomWeather, © 2014

Note: Actual official high and low records may vary slightly from our data, if they occured in-between our weather recording intervals... More about our weather records

Advertising

Ndjamena weather history for previous 24 hours

 ConditionsComfort  
Time TempWeatherWind HumidityBarometerVisibility
12:00 AM
Sep 24
79 °FClear.7 mph79%29.83 "Hg10 mi
11:00 PM
Sep 23
81 °FClear.5 mph74%29.83 "Hg10 mi
10:00 PM82 °FClear.No wind66%29.83 "Hg10 mi
9:00 PM84 °FClear.3 mph40%29.83 "Hg10 mi
8:00 PM86 °FClear.5 mph40%29.80 "Hg10 mi
7:00 PM86 °FClear.1 mph40%29.80 "Hg5 mi
6:00 PM90 °FClear.3 mph36%29.77 "Hg5 mi
5:00 PM95 °FSunny.2 mph36%29.77 "Hg10 mi
4:00 PM97 °FPassing clouds.3 mph34%29.77 "HgN/A
3:00 PM97 °FSunny.3 mph37%29.77 "Hg10 mi
2:00 PM97 °FSunny.3 mph47%29.80 "Hg10 mi
1:00 PM95 °FPassing clouds.5 mph47%29.83 "HgN/A
12:00 PM93 °FPassing clouds.6 mph47%29.86 "HgN/A
11:00 AM90 °FPassing clouds.8 mph55%29.86 "HgN/A
10:00 AM86 °FPassing clouds.8 mph62%29.89 "HgN/A
9:00 AM82 °FPassing clouds.8 mph70%29.92 "HgN/A
8:00 AM81 °FPassing clouds.8 mph74%29.89 "HgN/A
7:00 AM77 °FPassing clouds.6 mph89%29.89 "HgN/A
6:00 AM75 °FPassing clouds.5 mph89%29.86 "HgN/A
5:00 AM75 °FClear.6 mph83%29.83 "Hg10 mi
4:00 AM75 °FClear.6 mph89%29.83 "Hg10 mi
3:00 AM75 °FClear.7 mph78%29.83 "Hg10 mi
2:00 AM75 °FClear.7 mph78%29.83 "Hg10 mi
1:00 AM77 °FClear.7 mph74%29.86 "Hg10 mi
Weather by CustomWeather, © 2014

See weather overviewHow to use our weather pages